Tracking 30074 objects as of 13-Jan-2025
HD Live streaming from Space Station
objects crossing your sky now

STARLINK-6252

Track STARLINK-6252 now!
10-day predictions
STARLINK-6252 is classified as:


NORAD ID: 56555
Int'l Code: 2023-065BE
Perigee: 565.3 km
Apogee: 567.1 km
Inclination: 43.0 °
Period: 95.8 minutes
Semi major axis: 6937 km
RCS: Unknown
Launch date: May 14, 2023
Source: United States (US)
Launch site: AIR FORCE EASTERN TEST RANGE (AFETR)
Your satellite tracking list
Your tracking list is empty




NASA's NSSDC Master Catalog

Two Line Element Set (TLE):
1 56555U 23065BE  25012.63793826 -.00000173  00000-0  22403-5 0  9994
2 56555  43.0042 350.7139 0001295 265.8349  94.2345 15.02533706 93149
Source of the keplerian elements: AFSPC